1518814800.54,12019,11.06,73376.3,-17.27,-31.39,-32.63,0,*64
1518814801.82,12020,11.0,73374.5,-17.25,-31.51,-32.63,0,*62
1518814803.11,12021,11.0,73378.8,-17.25,-31.39,-32.45,0,*69
1518814804.36,12022,11.0,73376.0,-17.25,-31.05,-32.29,0,*6F
1518814805.6,12023,11.0,73372.3,-17.25,-31.01,-32.39,0,*6B
1518814806.86,12024,11.06,73380.0,-17.25,-31.01,-32.29,0,*6D
1518814808.07,12025,11.06,73374.8,-17.23,-31.33,-32.57,0,*62
1518814809.33,12026,11.0,73374.8,-17.25,-31.33,-32.45,0,*64
1518814810.62,12027,11.0,73376.3,-17.25,-31.23,-32.45,0,*64
1518814811.85,12028,11.06,73382.5,-17.25,-31.33,-32.57,0,*69
1518814813.14,12029,11.0,73382.8,-17.25,-30.73,-31.95,0,*60
1518814814.41,12030,11.06,73380.0,-17.23,-30.73,-32.07,0,*66
1518814815.65,12031,11.0,73378.5,-17.23,-30.73,-32.23,0,*61
1518814816.91,12032,11.0,73374.5,-17.25,-31.05,-32.45,0,*64
1518814818.15,12033,11.06,73378.3,-17.23,-31.23,-32.57,0,*64
1518814819.41,12034,11.0,73374.8,-17.25,-31.23,-32.57,0,*65
1518814820.69,12035,11.06,73378.0,-17.25,-31.39,-32.63,0,*68
1518814821.96,12036,11.06,73378.3,-17.23,-31.39,-32.63,0,*6D
1518814823.22,12037,11.0,73372.8,-17.25,-31.23,-32.57,0,*66
1518814824.48,12038,11.0,73378.0,-17.25,-31.33,-32.63,0,*6F
1518814825.71,12039,11.0,73378.0,-17.23,-31.01,-32.29,0,*67
1518814826.94,12040,11.0,73374.0,-17.25,-30.45,-31.67,0,*67
1518814828.18,12041,11.0,73372.0,-17.23,-30.11,-31.39,0,*6A
1518814829.44,12042,11.06,73360.3,-17.23,-30.51,-31.91,0,*6F
1518814830.73,12043,11.0,73364.3,-17.21,-30.77,-32.19,0,*6B
1518814831.99,12044,11.0,73364.5,-17.21,-30.83,-31.91,0,*64
1518814833.26,12045,11.06,73360.0,-17.21,-30.05,-31.29,0,*68
1518814834.54,12046,11.06,73358.8,-17.17,-30.17,-31.57,0,*64
1518814835.84,12047,11.0,73342.0,-17.17,-30.73,-31.95,0,*69
1518814837.09,12048,11.06,73346.0,-17.21,-30.45,-31.73,0,*6E
1518814838.34,12049,11.06,73364.5,-17.21,-30.39,-31.79,0,*6E
1518814839.6,12050,11.06,73378.3,-17.17,-30.73,-32.13,0,*62
1518814840.88,12051,11.06,73366.5,-17.21,-30.55,-31.91,0,*6B
1518814842.17,12052,11.0,73358.5,-17.17,-30.17,-31.57,0,*61
1518814843.46,12053,11.0,73354.0,-17.17,-30.61,-31.95,0,*6F
1518814844.72,12054,11.0,73358.5,-17.17,-30.61,-32.01,0,*66
1518814846.02,12055,11.06,73362.3,-17.17,-30.73,-31.95,0,*6A
1518814847.3,12056,11.0,73374.3,-17.17,-30.51,-31.73,0,*61
1518814848.54,12057,11.0,73370.8,-17.13,-30.73,-32.01,0,*62
1518814849.78,12058,11.0,73362.0,-17.13,-30.89,-32.13,0,*6B
1518814851.03,12059,11.0,73362.3,-17.13,-30.77,-32.13,0,*6B
1518814852.27,12060,11.0,73372.5,-17.13,-30.73,-32.13,0,*65
1518814853.53,12061,11.0,73370.3,-17.11,-30.73,-32.23,0,*65
1518814854.81,12062,11.0,73366.5,-17.13,-30.95,-32.19,0,*65
1518814856.1,12063,11.0,73386.5,-17.11,-30.73,-32.07,0,*61
1518814857.4,12064,11.06,73382.8,-17.11,-30.73,-32.07,0,*66
1518814858.65,12065,11.0,73374.0,-17.13,-30.67,-32.07,0,*60
1518814859.91,12066,11.06,73378.3,-17.13,-30.89,-32.29,0,*6F
1518814861.15,12067,11.06,73376.8,-17.13,-31.05,-32.29,0,*6B
1518814862.36,12068,11.0,73374.5,-17.13,-31.05,-32.35,0,*69
1518814863.6,12069,11.0,73372.5,-17.11,-31.01,-32.39,0,*62
1518814864.88,12070,11.0,73378.5,-17.13,-31.23,-32.63,0,*67
1518814866.17,12071,11.0,73374.8,-17.11,-31.23,-32.45,0,*60
1518814867.39,12072,11.06,73376.8,-17.13,-31.05,-32.35,0,*62
1518814868.65,12073,11.06,73378.5,-17.11,-30.89,-32.13,0,*60
1518814869.89,12074,11.0,73378.8,-17.13,-31.05,-32.29,0,*69
1518814871.13,12075,11.0,73376.8,-17.13,-31.05,-32.29,0,*68
1518814872.42,12076,11.0,73372.5,-17.11,-30.73,-32.07,0,*65
1518814873.69,12077,11.0,73382.5,-17.13,-30.89,-32.29,0,*6F
1518814874.98,12078,11.0,73380.0,-17.11,-30.73,-31.91,0,*67
1518814876.24,12079,11.0,73384.3,-17.11,-30.73,-32.13,0,*6F
1518814877.52,12080,11.06,73390.3,-17.13,-30.77,-32.19,0,*65
1518814878.76,12081,11.06,73390.8,-17.13,-30.73,-32.01,0,*69
1518814880.03,12082,11.0,73384.0,-17.11,-30.89,-32.13,0,*6E
1518814881.31,12083,11.0,73382.3,-17.11,-30.55,-32.07,0,*6B
1518814882.53,12084,11.0,73380.8,-17.13,-31.05,-32.35,0,*6B
1518814883.76,12085,11.0,73378.0,-17.11,-31.05,-32.23,0,*6F
1518814885.0,12086,11.0,73376.0,-17.11,-31.01,-32.23,0,*68
1518814886.27,12087,11.0,73378.3,-17.11,-30.89,-32.13,0,*6B
1518814887.53,12088,11.0,73376.3,-17.11,-30.73,-32.13,0,*61
1518814888.78,12089,11.0,73372.8,-17.13,-31.11,-32.35,0,*63
1518814890.05,12090,11.0,73378.5,-17.11,-31.17,-32.45,0,*68
1518814891.29,12091,11.06,73376.3,-17.13,-30.95,-32.35,0,*67
1518814892.51,12092,11.06,73378.5,-17.13,-31.29,-32.35,0,*62
1518814893.77,12093,11.06,73384.5,-17.11,-31.05,-32.29,0,*62
1518814895.01,12094,11.0,73376.8,-17.13,-30.77,-32.01,0,*69
1518814896.28,12095,11.0,73372.0,-17.11,-30.67,-31.91,0,*61
1518814897.52,12096,11.0,73370.5,-17.11,-31.01,-32.23,0,*69
1518814898.79,12097,11.0,73374.3,-17.11,-30.89,-32.13,0,*6A
1518814900.03,12098,11.0,73372.3,-17.11,-30.83,-32.23,0,*6C
1518814901.27,12099,11.0,73376.5,-17.11,-30.83,-32.23,0,*6D
1518814902.51,12100,11.0,73380.8,-17.11,-31.05,-32.39,0,*68
1518814903.76,12101,11.0,73386.0,-17.11,-31.17,-32.39,0,*6A
1518814905.0,12102,11.0,73380.8,-17.11,-31.05,-32.39,0,*6A
1518814906.27,12103,11.0,73376.8,-17.11,-30.89,-32.23,0,*65
1518814907.5,12104,11.06,73374.5,-17.11,-31.01,-32.23,0,*63
1518814908.75,12105,11.0,73372.0,-17.11,-31.17,-32.39,0,*6E
1518814910.01,12106,11.0,73374.0,-17.11,-31.05,-32.29,0,*6F
1518814911.25,12107,11.0,73378.3,-17.11,-31.01,-32.23,0,*60
1518814912.51,12108,11.0,73376.8,-17.11,-30.89,-32.13,0,*6D
1518814913.78,12109,11.0,73378.3,-17.11,-30.73,-32.13,0,*69
1518814915.04,12110,11.06,73378.3,-17.11,-30.55,-31.79,0,*6A
1518814916.3,12111,11.0,73368.0,-17.11,-30.33,-31.73,0,*61
1518814917.53,12112,11.0,73366.5,-17.09,-30.55,-31.79,0,*61
1518814918.77,12113,11.0,73362.8,-17.09,-30.55,-31.79,0,*60
1518814920.03,12114,11.0,73364.8,-17.07,-30.61,-32.01,0,*62
1518814921.24,12115,11.0,73368.8,-17.09,-31.01,-32.23,0,*6A
1518814922.48,12116,11.0,73366.8,-17.09,-31.17,-32.29,0,*64
1518814923.73,12117,11.0,73376.0,-17.09,-31.33,-32.45,0,*69
1518814925.0,12118,11.06,73372.0,-17.07,-30.23,-31.61,0,*6D
1518814926.28,12119,11.0,73374.8,-17.07,-30.51,-31.73,0,*6A
1518814927.53,12120,11.0,73378.5,-17.09,-30.77,-32.13,0,*6F
1518814928.82,12121,11.0,73382.8,-17.07,-30.77,-32.07,0,*65
1518814930.09,12122,11.0,73382.8,-17.09,-30.89,-32.29,0,*65
1518814931.34,12123,11.0,73382.3,-17.07,-30.83,-32.23,0,*6A
1518814932.61,12124,11.0,73376.8,-17.07,-30.83,-32.19,0,*64
1518814933.9,12125,11.06,73378.3,-17.07,-30.61,-31.91,0,*6A
1518814935.15,12126,11.0,73382.0,-17.09,-30.67,-32.07,0,*6D
1518814936.43,12127,11.0,73382.3,-17.07,-30.83,-32.07,0,*68
1518814937.69,12128,11.0,73372.3,-17.07,-30.61,-32.01,0,*6D
1518814938.95,12129,11.0,73364.8,-17.07,-30.45,-31.73,0,*6C
1518814940.22,12130,11.0,73372.8,-17.07,-30.61,-32.01,0,*64
1518814941.47,12131,11.0,73372.0,-17.05,-30.67,-32.07,0,*67
1518814942.72,12132,11.0,73376.8,-17.05,-30.83,-32.07,0,*6E
1518814944.02,12133,11.0,73378.8,-17.07,-30.77,-32.19,0,*69
1518814945.27,12134,11.0,73382.8,-17.07,-31.29,-32.51,0,*68
1518814946.52,12135,11.0,73378.0,-17.07,-31.17,-32.51,0,*64
1518814947.77,12136,11.0,73378.3,-17.07,-31.29,-32.51,0,*6A
1518814949.01,12137,11.0,73370.0,-17.07,-31.17,-32.57,0,*60
1518814950.25,12138,11.0,73370.0,-17.09,-31.23,-32.57,0,*66
1518814951.53,12139,11.0,73366.5,-17.07,-31.11,-32.39,0,*60
1518814952.77,12140,11.0,73362.3,-17.09,-30.73,-32.23,0,*6E
1518814954.05,12141,11.0,73370.8,-17.07,-30.67,-32.07,0,*62
1518814955.31,12142,11.0,73366.0,-17.09,-30.61,-31.95,0,*61
1518814956.55,12143,11.0,73370.3,-17.07,-31.01,-32.35,0,*60
1518814957.83,12144,11.0,73362.3,-17.07,-31.11,-32.23,0,*61
1518814959.11,12145,11.0,73356.0,-17.07,-31.11,-32.51,0,*65
1518814960.35,12146,11.0,73366.5,-17.07,-31.01,-32.23,0,*62
1518814961.64,12147,11.0,73372.3,-17.07,-30.51,-31.85,0,*68
1518814962.9,12148,11.0,73366.5,-17.07,-30.61,-32.01,0,*6B
1518814964.2,12149,11.0,73372.8,-17.07,-30.95,-32.19,0,*68
1518814965.47,12150,11.0,73376.0,-17.07,-30.95,-32.23,0,*69
1518814966.72,12151,11.0,73378.3,-17.07,-31.29,-32.51,0,*6B
1518814968.0,12152,11.0,73374.8,-17.07,-30.67,-31.85,0,*69
1518814969.29,12153,11.0,73376.8,-17.03,-30.89,-32.19,0,*6A
1518814970.51,12154,11.0,73382.3,-17.05,-31.33,-32.57,0,*61
1518814971.79,12155,11.0,73382.3,-17.03,-31.23,-32.69,0,*6A
1518814973.0,12156,11.06,73376.0,-17.05,-31.29,-32.57,0,*68
1518814974.25,12157,11.0,73376.3,-17.05,-31.33,-32.75,0,*62
1518814975.48,12158,11.0,73382.8,-17.07,-31.33,-32.57,0,*6F
1518814976.77,12159,11.06,73382.5,-17.07,-31.45,-32.75,0,*6F
1518814978.06,12160,11.0,73386.3,-17.07,-31.51,-32.79,0,*6C
1518814979.3,12161,11.0,73382.5,-17.09,-31.33,-32.63,0,*6C
1518814980.58,12162,11.06,73384.8,-17.09,-31.39,-32.75,0,*62
1518814981.81,12163,11.0,73378.8,-17.09,-31.39,-32.57,0,*63
1518814983.03,12164,11.0,73380.0,-17.09,-31.33,-32.57,0,*6E
1518814984.32,12165,11.0,73380.5,-17.07,-31.51,-32.79,0,*69
1518814985.62,12166,11.0,73382.0,-17.07,-31.51,-32.75,0,*66
1518814986.86,12167,11.0,73380.0,-17.09,-31.23,-32.57,0,*6C
1518814988.14,12168,11.0,73378.8,-17.09,-31.57,-32.79,0,*6C
1518814989.41,12169,11.06,73380.0,-17.09,-31.57,-32.79,0,*6D
1518814990.66,12170,11.06,73380.8,-17.07,-31.33,-32.69,0,*68
1518814991.9,12171,11.0,73380.8,-17.09,-31.33,-32.45,0,*69
1518814993.2,12172,11.0,73380.3,-17.11,-31.51,-32.75,0,*64
1518814994.44,12173,11.0,73378.8,-17.09,-31.23,-32.57,0,*69
1518814995.71,12174,11.0,73382.0,-17.09,-31.39,-32.75,0,*65
1518814996.98,12175,11.0,73382.0,-17.09,-31.39,-32.85,0,*6B
1518814998.23,12176,11.06,73386.0,-17.07,-31.33,-32.69,0,*6E
1518814999.45,12177,11.0,73378.0,-17.13,-31.05,-32.35,0,*66
1518815000.71,12178,11.0,73378.8,-17.11,-31.17,-32.45,0,*6F
1518815001.98,12179,11.0,73380.5,-17.11,-31.23,-32.57,0,*6A
1518815003.28,12180,11.0,73380.0,-17.11,-31.23,-32.63,0,*6B
1518815004.54,12181,11.0,73384.3,-17.11,-31.17,-32.45,0,*69
1518815005.79,12182,11.0,73380.0,-17.11,-31.17,-32.39,0,*61
1518815007.06,12183,11.0,73380.3,-17.11,-31.23,-32.39,0,*67
1518815008.3,12184,11.0,73376.8,-17.11,-31.33,-32.57,0,*69
1518815009.59,12185,11.0,73382.5,-17.11,-31.51,-32.79,0,*60
1518815010.86,12186,11.0,73378.0,-17.11,-31.33,-32.63,0,*6C
1518815012.16,12187,11.0,73376.0,-17.11,-31.51,-32.75,0,*6E
1518815013.4,12188,11.0,73376.8,-17.11,-31.67,-32.91,0,*6E
1518815014.69,12189,11.0,73374.8,-17.11,-31.51,-32.79,0,*6C
1518815015.94,12190,11.0,73376.3,-17.13,-31.45,-32.79,0,*63
1518815017.24,12191,11.0,73378.3,-17.11,-31.51,-32.79,0,*65
1518815018.49,12192,11.06,73382.8,-17.13,-31.57,-32.91,0,*64
1518815019.75,12193,11.0,73376.8,-17.11,-31.23,-32.57,0,*6E
1518815021.03,12194,11.0,73378.8,-17.13,-31.57,-32.85,0,*67
1518815022.3,12195,11.0,73378.3,-17.11,-31.23,-32.39,0,*60
1518815023.55,12196,11.0,73380.0,-17.13,-31.11,-32.51,0,*6E
1518815024.82,12197,11.0,73376.5,-17.11,-31.23,-32.57,0,*6A
1518815026.09,12198,11.0,73376.3,-17.11,-31.17,-32.45,0,*61
1518815027.36,12199,11.0,73380.0,-17.13,-31.57,-32.79,0,*69
1518815028.61,12200,11.0,73376.3,-17.13,-31.39,-32.69,0,*63
1518815029.84,12201,11.0,73382.3,-17.13,-31.29,-32.51,0,*68
1518815031.09,12202,11.0,73378.5,-17.13,-31.11,-32.51,0,*60
1518815032.35,12203,11.0,73380.5,-17.13,-31.39,-32.63,0,*6A
1518815033.62,12204,11.0,73376.8,-17.11,-31.05,-32.45,0,*64
1518815034.89,12205,11.0,73380.8,-17.13,-31.57,-32.79,0,*6F
1518815036.16,12206,11.0,73376.8,-17.13,-31.39,-32.63,0,*6F
1518815037.43,12207,11.0,73376.8,-17.11,-31.17,-32.45,0,*64
1518815038.67,12208,11.0,73378.5,-17.13,-31.39,-32.69,0,*6B
1518815039.92,12209,11.0,73382.3,-17.13,-31.39,-32.69,0,*6A
1518815041.19,12210,11.0,73378.0,-17.13,-31.57,-32.85,0,*68
1518815042.44,12211,11.0,73380.3,-17.13,-31.39,-32.69,0,*63
1518815043.72,12212,11.0,73378.8,-17.13,-31.61,-32.79,0,*6C
1518815044.96,12213,11.06,73380.8,-17.17,-31.45,-32.91,0,*69
1518815046.26,12214,11.0,73378.0,-17.17,-31.61,-32.85,0,*6D
1518815047.53,12215,11.0,73378.3,-17.17,-31.39,-32.69,0,*63
1518815048.8,12216,11.0,73376.8,-17.17,-31.57,-32.91,0,*6F
1518815050.09,12217,11.0,73378.5,-17.17,-31.61,-32.85,0,*6E
1518815051.34,12218,11.0,73376.3,-17.13,-31.61,-32.91,0,*60
1518815052.59,12219,11.0,73380.8,-17.13,-31.73,-32.91,0,*62
1518815053.86,12220,11.0,73380.5,-17.17,-31.61,-32.91,0,*6F
1518815055.15,12221,11.0,73378.8,-17.17,-31.39,-32.79,0,*65
1518815056.41,12222,11.0,73378.5,-17.21,-31.67,-32.97,0,*68
1518815057.68,12223,11.0,73380.3,-17.17,-31.45,-32.85,0,*6F
1518815058.96,12224,11.0,73382.8,-17.17,-31.45,-32.79,0,*6B
1518815060.2,12225,11.0,73380.5,-17.17,-31.29,-32.51,0,*6A
1518815061.49,12226,11.0,73380.3,-17.21,-31.61,-32.97,0,*6A
1518815062.76,12227,11.06,73380.0,-17.21,-31.61,-32.91,0,*6D
1518815064.0,12228,11.0,73376.5,-17.21,-31.29,-32.51,0,*62
1518815065.24,12229,11.0,73376.8,-17.21,-31.17,-32.39,0,*60
1518815066.51,12230,11.0,73374.5,-17.21,-31.45,-32.75,0,*67
1518815067.76,12231,11.0,73372.8,-17.21,-31.45,-32.69,0,*6B
1518815069.02,12232,11.0,73372.0,-17.17,-31.29,-32.63,0,*6D
1518815070.26,12233,11.0,73374.0,-17.21,-31.33,-32.69,0,*68
1518815071.53,12234,11.0,73374.8,-17.21,-31.45,-32.75,0,*63
1518815072.81,12235,11.06,73376.8,-17.21,-31.45,-32.75,0,*62
1518815074.09,12236,11.0,73374.8,-17.21,-31.51,-32.85,0,*6B
1518815075.32,12237,11.0,73374.3,-17.21,-31.33,-32.57,0,*61
1518815076.59,12238,11.0,73378.3,-17.17,-31.29,-32.63,0,*67
1518815077.83,12239,11.0,73376.0,-17.21,-31.33,-32.69,0,*62
1518815079.06,12240,11.0,73376.5,-17.21,-31.29,-32.57,0,*6A
1518815080.34,12241,11.0,73382.0,-17.17,-31.11,-32.69,0,*68
1518815081.61,12242,11.0,73382.8,-17.21,-31.45,-32.85,0,*6D
1518815082.88,12243,11.0,73386.8,-17.17,-31.57,-32.91,0,*6F
1518815084.16,12244,11.0,73386.0,-17.21,-31.51,-32.85,0,*6E
1518815085.44,12245,11.0,73380.8,-17.21,-31.11,-32.51,0,*62
1518815086.7,12246,11.0,73374.5,-17.17,-30.77,-32.23,0,*60
1518815087.99,12247,11.0,73360.3,-17.21,-30.61,-31.91,0,*69
1518815089.24,12248,11.0,73366.8,-17.21,-30.45,-31.91,0,*60
1518815090.53,12249,11.0,73394.3,-17.17,-30.61,-31.95,0,*66
1518815091.8,12250,11.0,73376.0,-17.21,-30.27,-31.51,0,*61
1518815093.06,12251,11.0,73332.5,-17.17,-30.73,-32.01,0,*62
1518815094.33,12252,11.0,73348.8,-17.13,-30.73,-31.95,0,*6B
1518815095.58,12253,11.0,73368.5,-17.13,-30.73,-32.13,0,*67
1518815096.81,12254,11.0,73368.5,-17.13,-30.39,-31.79,0,*61
1518815098.07,12255,11.0,73380.0,-17.13,-30.55,-31.85,0,*69
1518815099.31,12256,11.0,73382.8,-17.13,-30.55,-31.79,0,*69
1518815100.54,12257,11.0,73372.8,-17.13,-30.55,-31.79,0,*68
1518815101.83,12258,11.0,73372.8,-17.11,-30.55,-31.95,0,*67
1518815103.1,12259,11.0,73376.0,-17.11,-30.89,-32.39,0,*62
1518815104.32,12260,11.0,73380.0,-17.13,-31.29,-32.69,0,*64
1518815105.57,12261,11.0,73378.0,-17.13,-31.11,-32.35,0,*67
1518815106.83,12262,11.0,73378.3,-17.11,-31.01,-32.29,0,*6A
1518815108.07,12263,11.0,73382.3,-17.11,-31.17,-32.57,0,*65
1518815109.31,12264,11.06,73380.8,-17.13,-31.33,-32.63,0,*61
1518815110.58,12265,11.0,73378.8,-17.11,-31.33,-32.63,0,*62
1518815111.87,12266,11.0,73378.8,-17.11,-31.23,-32.45,0,*64
1518815113.12,12267,11.0,73376.0,-17.13,-31.29,-32.63,0,*69
1518815114.39,12268,11.0,73378.8,-17.11,-31.33,-32.75,0,*68
1518815115.66,12269,11.0,73376.3,-17.11,-31.33,-32.63,0,*6E
1518815116.93,12270,11.0,73374.8,-17.13,-31.39,-32.79,0,*65
1518815118.18,12271,11.0,73376.0,-17.13,-31.45,-32.79,0,*6F
1518815119.45,12272,11.0,73374.5,-17.13,-31.39,-32.85,0,*64
1518815120.7,12273,11.0,73376.8,-17.13,-31.57,-32.91,0,*68
1518815121.95,12274,11.0,73374.8,-17.13,-31.73,-32.91,0,*69
1518815123.19,12275,11.0,73376.8,-17.13,-31.61,-32.91,0,*6B
1518815124.44,12276,11.0,73376.0,-17.13,-31.61,-32.91,0,*68
1518815125.67,12277,11.0,73376.5,-17.13,-31.45,-32.69,0,*68
1518815126.94,12278,11.0,73382.3,-17.13,-31.57,-32.85,0,*66
1518815128.22,12279,11.0,73380.0,-17.13,-31.73,-32.85,0,*61
1518815129.47,12280,11.0,73386.3,-17.13,-31.45,-32.79,0,*61
1518815130.72,12281,11.0,73384.3,-17.13,-31.39,-32.69,0,*6A
1518815131.99,12282,11.0,73372.5,-17.13,-30.89,-32.19,0,*64
1518815133.23,12283,11.0,73368.0,-17.13,-30.73,-32.13,0,*6A
1518815134.5,12284,11.0,73360.8,-17.13,-30.77,-32.19,0,*63
1518815135.74,12285,11.0,73352.3,-17.13,-31.05,-32.45,0,*6F
1518815136.99,12286,11.0,73364.8,-17.13,-30.95,-32.35,0,*63
1518815138.2,12287,11.0,73362.5,-17.13,-31.05,-32.35,0,*6A
1518815139.49,12288,11.0,73356.3,-17.11,-30.89,-32.29,0,*6F
1518815140.76,12289,11.0,73362.5,-17.13,-31.11,-32.45,0,*66
1518815141.99,12290,11.0,73368.5,-17.13,-31.29,-32.51,0,*60
1518815143.26,12291,11.0,73360.5,-17.11,-31.23,-32.57,0,*6F
1518815144.52,12292,11.0,73364.5,-17.11,-31.01,-32.29,0,*65
1518815145.78,12293,11.0,73368.5,-17.13,-30.89,-32.29,0,*67
1518815147.0,12294,11.0,73370.3,-17.13,-31.05,-32.35,0,*68
1518815148.24,12295,11.0,73374.3,-17.11,-31.17,-32.39,0,*64
1518815149.5,12296,11.0,73380.0,-17.11,-31.05,-32.29,0,*65
1518815150.74,12297,11.0,73374.5,-17.11,-31.05,-32.39,0,*65
1518815152.01,12298,11.0,73368.8,-17.13,-30.95,-32.45,0,*6B
1518815153.26,12299,11.0,73366.8,-17.11,-31.17,-32.39,0,*68
1518815154.53,12300,11.0,73366.0,-17.11,-31.33,-32.45,0,*64
1518815155.82,12301,11.0,73366.8,-17.11,-31.39,-32.75,0,*6C
1518815157.09,12302,11.0,73368.0,-17.13,-31.39,-32.79,0,*61
1518815158.35,12303,11.0,73372.5,-17.13,-31.45,-32.75,0,*67
1518815159.61,12304,11.0,73370.5,-17.11,-31.33,-32.45,0,*60
1518815160.91,12305,11.0,73360.8,-17.11,-31.51,-32.75,0,*66
1518815162.17,12306,11.0,73360.0,-17.11,-31.05,-32.45,0,*67
1518815163.41,12307,11.0,73390.0,-17.11,-31.01,-32.57,0,*61
1518815164.67,12308,11.0,73378.3,-17.11,-30.89,-32.23,0,*6C
1518815165.89,12309,11.0,73376.0,-17.13,-31.01,-32.39,0,*65
1518815167.16,12310,11.0,73374.5,-17.13,-31.39,-32.63,0,*69
1518815168.41,12311,11.0,73370.8,-17.13,-31.11,-32.51,0,*63
1518815169.71,12312,11.0,73370.3,-17.11,-31.23,-32.45,0,*66
1518815170.98,12313,11.0,73370.5,-17.11,-31.33,-32.63,0,*62
1518815172.24,12314,11.0,73368.5,-17.11,-31.33,-32.63,0,*65
1518815173.52,12315,11.0,73362.0,-17.13,-31.23,-32.63,0,*67
1518815174.81,12316,11.0,73368.0,-17.11,-31.23,-32.63,0,*66
1518815176.05,12317,11.0,73364.8,-17.11,-31.33,-32.57,0,*61
1518815177.29,12318,11.0,73352.5,-17.13,-31.29,-32.63,0,*60
1518815178.56,12319,11.0,73348.5,-17.11,-30.73,-32.13,0,*6A
1518815179.83,12320,11.0,73374.0,-17.11,-30.67,-32.07,0,*60
1518815181.1,12321,11.0,73362.0,-17.13,-30.89,-32.29,0,*6F
1518815182.39,12322,11.0,73362.3,-17.11,-30.89,-32.29,0,*6E
1518815183.63,12323,11.0,73362.8,-17.11,-31.17,-32.39,0,*68
1518815184.87,12324,11.0,73364.5,-17.11,-31.17,-32.57,0,*67
1518815186.13,12325,11.0,73364.0,-17.11,-31.05,-32.45,0,*66
1518815187.43,12326,11.0,73366.0,-17.11,-31.39,-32.75,0,*69
1518815188.68,12327,11.0,73364.3,-17.13,-31.33,-32.75,0,*60
1518815189.97,12328,11.0,73364.5,-17.11,-31.51,-32.85,0,*66
1518815191.27,12329,11.0,73366.8,-17.11,-31.57,-32.79,0,*62
1518815192.54,12330,11.0,73364.3,-17.11,-31.33,-32.75,0,*64
1518815193.81,12331,11.0,73368.0,-17.11,-31.33,-32.75,0,*65
1518815195.11,12332,11.0,73366.8,-17.11,-31.39,-32.85,0,*63
1518815196.37,12333,11.0,73368.8,-17.11,-31.67,-32.97,0,*6A
1518815197.61,12334,11.0,73370.3,-17.13,-31.67,-32.97,0,*6F
1518815198.91,12335,11.0,73368.3,-17.11,-31.57,-32.85,0,*6C
1518815200.16,12336,11.0,73368.3,-17.13,-31.45,-32.79,0,*6D
1518815201.4,12337,11.0,73370.3,-17.13,-31.61,-32.91,0,*6C
1518815202.68,12338,11.0,73374.3,-17.13,-31.61,-32.85,0,*66
1518815203.93,12339,11.0,73372.3,-17.13,-31.39,-32.69,0,*68
1518815205.17,12340,11.0,73370.8,-17.13,-31.57,-32.91,0,*69
1518815206.42,12341,11.0,73378.0,-17.13,-31.57,-32.91,0,*68
1518815207.67,12342,11.0,73374.8,-17.13,-31.29,-32.63,0,*6F
1518815208.96,12343,11.0,73372.0,-17.17,-31.39,-32.85,0,*63
1518815210.25,12344,11.0,73370.3,-17.17,-31.57,-32.79,0,*6F
1518815211.49,12345,11.0,73368.8,-17.17,-31.05,-32.35,0,*61
1518815212.73,12346,11.0,73370.8,-17.17,-31.05,-32.35,0,*62
1518815213.95,12347,11.0,73374.0,-17.13,-31.05,-32.51,0,*65
1518815215.22,12348,11.0,73374.0,-17.13,-30.95,-32.45,0,*67
1518815216.49,12349,11.0,73372.0,-17.13,-31.23,-32.45,0,*6A
1518815217.72,12350,11.0,73372.5,-17.13,-31.29,-32.51,0,*6D
1518815218.99,12351,11.0,73376.0,-17.13,-31.61,-32.79,0,*6A
1518815220.23,12352,11.0,73374.8,-17.13,-31.33,-32.45,0,*61
1518815221.51,12353,11.0,73376.3,-17.13,-30.95,-32.19,0,*64
1518815222.77,12354,11.0,73374.5,-17.11,-31.05,-32.29,0,*6A
1518815224.04,12355,11.0,73368.8,-17.13,-31.23,-32.45,0,*67
1518815225.28,12356,11.0,73370.5,-17.11,-31.33,-32.57,0,*64
1518815226.52,12357,11.0,73372.8,-17.11,-31.05,-32.39,0,*68
1518815227.81,12358,11.0,73372.0,-17.11,-31.57,-32.63,0,*6F
1518815229.06,12359,11.0,73370.3,-17.13,-31.39,-32.35,0,*67
1518815230.34,12360,11.0,73378.8,-17.11,-30.55,-31.91,0,*69
1518815231.58,12361,11.0,73374.0,-17.13,-30.77,-32.13,0,*63
1518815232.88,12362,11.0,73374.8,-17.11,-30.73,-32.07,0,*63
1518815234.12,12363,11.0,73374.8,-17.11,-31.05,-32.23,0,*64
1518815235.38,12364,11.0,73376.8,-17.11,-31.33,-32.45,0,*66
1518815236.6,12365,11.0,73376.5,-17.13,-31.05,-32.39,0,*6B
1518815237.82,12366,11.0,73376.3,-17.09,-31.17,-32.39,0,*60
1518815239.07,12367,11.0,73372.5,-17.09,-31.23,-32.39,0,*66
1518815240.35,12368,11.0,73372.5,-17.09,-31.57,-32.75,0,*62
1518815241.59,12369,11.0,73376.3,-17.09,-31.33,-32.45,0,*62
1518815242.88,12370,11.0,73380.5,-17.11,-31.51,-32.63,0,*63
1518815244.18,12371,11.0,73374.8,-17.11,-31.23,-32.45,0,*63
1518815245.42,12372,11.0,73374.0,-17.11,-31.33,-32.57,0,*62
1518815246.68,12373,11.0,73370.3,-17.11,-31.67,-32.63,0,*65
1518815247.98,12374,11.0,73370.8,-17.11,-31.51,-32.75,0,*60
1518815249.23,12375,11.0,73372.0,-17.13,-31.61,-32.69,0,*6D
1518815250.5,12376,11.0,73374.8,-17.11,-31.67,-32.85,0,*68
1518815251.77,12377,11.0,73374.8,-17.09,-31.73,-32.85,0,*65
1518815253.05,12378,11.0,73378.5,-17.09,-31.73,-32.79,0,*69
1518815254.31,12379,11.0,73378.0,-17.11,-31.67,-32.79,0,*64
1518815255.61,12380,11.0,73376.5,-17.11,-31.51,-32.75,0,*6B
1518815256.85,12381,11.0,73372.8,-17.11,-31.33,-32.39,0,*66
1518815258.15,12382,11.0,73372.5,-17.11,-31.51,-32.75,0,*69
1518815259.45,12383,11.0,73372.0,-17.11,-31.57,-32.75,0,*6E
1518815260.73,12384,11.0,73370.8,-17.09,-31.57,-32.75,0,*60
1518815261.98,12385,11.0,73370.0,-17.09,-31.79,-32.85,0,*62
1518815263.23,12386,11.0,73372.0,-17.09,-31.79,-32.85,0,*61
1518815264.49,12387,11.0,73370.5,-17.11,-31.79,-32.97,0,*6A
1518815265.79,12388,11.0,73370.0,-17.11,-31.73,-32.85,0,*6C
1518815267.04,12389,11.0,73372.3,-17.13,-31.85,-33.03,0,*69
1518815268.26,12390,11.0,73370.0,-17.13,-31.79,-32.91,0,*68
1518815269.51,12391,11.0,73374.0,-17.13,-31.85,-32.91,0,*6A
1518815270.77,12392,11.0,73368.5,-17.11,-31.67,-32.79,0,*61
1518815272.05,12393,11.0,73368.5,-17.13,-31.95,-33.09,0,*69
1518815273.32,12394,11.0,73370.3,-17.13,-31.73,-32.79,0,*60
1518815274.59,12395,11.0,73372.3,-17.11,-31.67,-32.75,0,*6A
1518815275.86,12396,11.0,73372.0,-17.11,-31.67,-32.85,0,*66
1518815277.16,12397,11.0,73376.5,-17.11,-31.73,-32.79,0,*61
1518815278.38,12398,11.0,73378.5,-17.13,-31.79,-32.91,0,*60
1518815279.63,12399,11.0,73374.8,-17.13,-31.85,-33.03,0,*68
1518815280.9,12400,11.0,73374.5,-17.13,-31.61,-32.79,0,*69
1518815282.15,12401,11.0,73374.0,-17.13,-31.51,-32.69,0,*6A
1518815283.4,12402,11.0,73374.3,-17.13,-31.85,-32.91,0,*67
1518815284.65,12403,11.0,73376.3,-17.13,-31.85,-32.91,0,*66
1518815285.9,12404,11.0,73372.5,-17.13,-31.57,-32.91,0,*6E
1518815287.12,12405,11.0,73374.3,-17.13,-31.79,-32.91,0,*63
1518815288.36,12406,11.0,73378.8,-17.13,-31.67,-32.79,0,*69
1518815289.61,12407,11.0,73374.3,-17.13,-31.57,-32.69,0,*6A
1518815290.89,12408,11.0,73370.8,-17.13,-31.61,-32.79,0,*61
1518815292.16,12409,11.0,73368.0,-17.13,-31.73,-32.85,0,*60
1518815293.44,12410,11.0,73374.8,-17.13,-31.61,-32.79,0,*68
1518815294.69,12411,11.0,73368.3,-17.13,-31.39,-32.51,0,*6E
1518815295.91,12412,11.0,73364.5,-17.13,-31.45,-32.69,0,*6D
1518815297.16,12413,11.0,73370.0,-17.13,-31.61,-32.69,0,*6A
1518815298.39,12414,11.0,73370.0,-17.13,-31.29,-32.51,0,*6A
1518815299.66,12415,11.0,73370.5,-17.13,-31.61,-32.79,0,*6D
1518815300.91,12416,11.0,73370.8,-17.13,-31.79,-33.09,0,*61
1518815302.18,12417,11.0,73364.8,-17.13,-31.57,-32.63,0,*61